Weather History for KCEY - June, 2013

Change the Weather History Date:

Monday, June 24, 2013

  Actual Average (KPAH) Record (KPAH)
Temperature  
Mean Temperature 80 °F 78 °F  
Max Temperature 87 °F 88 °F 103 °F (1988)
Min Temperature 73 °F 67 °F 49 °F (1972)
Degree Days  
Heating Degree Days 0 0  
Month to date heating degree days 0  
Since 1 June heating degree days 0  
Since 1 July heating degree days 4128  
Cooling Degree Days 15 13  
Month to date cooling degree days 239  
Year to date cooling degree days 411  
Since 1 June cooling degree days 239  
Growing Degree Days 30 (Base 50)    
Moisture  
Dew Point 71 °F    
Average Humidity 78    
Maximum Humidity 100    
Minimum Humidity 55    
Precipitation  
Precipitation 0.00 in 0.14 in 3.01 in (1955)
Month to date precipitation 3.25  
Year to date precipitation 24.47  
Snow  
Snow 0.00 in 0.00 in T in (1955)
Month to date snowfall 0.0  
Since 1 June snowfall 0.0  
Since 1 July snowfall 9.1  
Snow Depth -    
Sea Level Pressure  
Sea Level Pressure 30.09 in    
Wind  
Wind Speed 6 mph (South)    
Max Wind Speed 15 mph    
Max Gust Speed 23 mph    
Visibility 10 miles    
Events      
T = Trace of Precipitation, MM = Missing Value Source: NWS Daily Summary

Daily Weather History Graph

Daily Weather History Graph

Search for Another Location

Airport or City:

Trip Planner

Search our weather history database for the weather conditions in past years. The results will help you decide how hot, cold, wet, or windy it might be!

Date:

Astronomy

Jun. 24, 2013 Rise Set
Actual Time 5:35 AM CDT 8:15 PM CDT
Civil Twilight 5:05 AM CDT 8:46 PM CDT
Nautical Twilight 4:27 AM CDT 9:24 PM CDT
Astronomical Twilight 3:44 AM CDT 10:07 PM CDT
Moon 9:21 PM CDT (6/24) 7:00 AM CDT (6/24)
Length of Visible Light 15h 41m
Length of Day
14h 40m
Full, 98% of the Moon is Illuminated
Jun 24
Full
Jun 29
Last Quarter
Jul 8
New
Jul 15
First Quarter
Jul 22
Full

Hourly Weather History & Observations

Time (CDT) Temp. Heat Index Dew Point Humidity Pressure Visibility Wind Dir Wind Speed Gust Speed Precip Events Conditions
12:15 AM 75.2 °F - 68.0 °F 78% 30.08 in 10.0 mi South 5.8 mph - N/A   Mostly Cloudy
12:35 AM 73.4 °F - 68.0 °F 83% 30.07 in 10.0 mi South 6.9 mph - N/A   Unknown
12:55 AM 75.2 °F - 68.0 °F 78% 30.06 in 10.0 mi South 6.9 mph - N/A   Unknown
1:15 AM 75.2 °F - 68.0 °F 78% 30.06 in 10.0 mi South 5.8 mph - N/A   Unknown
1:35 AM 75.2 °F - 68.0 °F 78% 30.06 in 10.0 mi South 6.9 mph - N/A   Unknown
1:55 AM 75.2 °F - 68.0 °F 78% 30.06 in 10.0 mi South 6.9 mph - N/A   Unknown
2:15 AM 75.2 °F - 68.0 °F 78% 30.07 in 10.0 mi South 3.5 mph - N/A   Unknown
2:35 AM 73.4 °F - 68.0 °F 83% 30.07 in 10.0 mi South 4.6 mph - N/A   Clear
2:55 AM 73.4 °F - 68.0 °F 83% 30.08 in 10.0 mi SSW 3.5 mph - N/A   Clear
3:15 AM 73.4 °F - 68.0 °F 83% 30.08 in 10.0 mi SSW 4.6 mph - N/A   Clear
3:35 AM 73.4 °F - 68.0 °F 83% 30.07 in 10.0 mi South 4.6 mph - N/A   Partly Cloudy
3:55 AM 73.4 °F - 68.0 °F 83% 30.07 in 10.0 mi South 5.8 mph - N/A   Scattered Clouds
4:15 AM 73.4 °F - 68.0 °F 83% 30.07 in 10.0 mi South 6.9 mph - N/A   Mostly Cloudy
4:35 AM 73.4 °F - 68.0 °F 83% 30.08 in 10.0 mi SSW 6.9 mph - N/A   Scattered Clouds
4:55 AM 73.4 °F - 68.0 °F 83% 30.08 in 10.0 mi SSW 5.8 mph - N/A   Scattered Clouds
5:15 AM 73.4 °F - 68.0 °F 83% 30.08 in 10.0 mi SSW 9.2 mph - N/A   Mostly Cloudy
5:35 AM 75.2 °F - 68.0 °F 78% 30.09 in 10.0 mi SSW 8.1 mph - N/A   Mostly Cloudy
5:55 AM 73.4 °F - 68.0 °F 83% 30.10 in 10.0 mi South 5.8 mph - N/A   Scattered Clouds
6:15 AM 73.4 °F - 68.0 °F 83% 30.11 in 10.0 mi SSW 6.9 mph - N/A   Partly Cloudy
6:35 AM 75.2 °F - 68.0 °F 78% 30.12 in 10.0 mi SW 5.8 mph - N/A   Mostly Cloudy
6:55 AM 75.2 °F - 69.8 °F 83% 30.12 in 10.0 mi SSW 5.8 mph - N/A   Overcast
7:15 AM 73.4 °F - 69.8 °F 88% 30.13 in 10.0 mi SSW 5.8 mph - N/A   Mostly Cloudy
7:35 AM 75.2 °F - 69.8 °F 83% 30.14 in 10.0 mi SSW 5.8 mph - N/A   Mostly Cloudy
7:55 AM 75.2 °F - 69.8 °F 83% 30.14 in 10.0 mi SSW 5.8 mph - N/A   Mostly Cloudy
8:15 AM 75.2 °F - 69.8 °F 83% 30.15 in 10.0 mi SSW 5.8 mph - N/A   Mostly Cloudy
8:35 AM 75.2 °F - 69.8 °F 83% 30.15 in 10.0 mi SSW 5.8 mph - N/A   Mostly Cloudy
8:55 AM 75.2 °F - 71.6 °F 89% 30.15 in 10.0 mi SSW 6.9 mph - N/A   Partly Cloudy
9:15 AM 77.0 °F - 71.6 °F 83% 30.15 in 10.0 mi SSW 5.8 mph - N/A   Partly Cloudy
9:35 AM 78.8 °F - 71.6 °F 78% 30.15 in 10.0 mi South 5.8 mph - N/A   Clear
9:55 AM 80.6 °F 84.6 °F 71.6 °F 74% 30.15 in 10.0 mi SW 9.2 mph - N/A   Clear
10:15 AM 82.4 °F 87.2 °F 71.6 °F 70% 30.15 in 10.0 mi SW 10.4 mph - N/A   Clear
10:35 AM 82.4 °F 87.2 °F 71.6 °F 70% 30.14 in 10.0 mi SSW 9.2 mph - N/A   Clear
10:55 AM 84.2 °F 89.6 °F 71.6 °F 66% 30.14 in 10.0 mi SSW 8.1 mph - N/A   Partly Cloudy
11:15 AM 84.2 °F 89.6 °F 71.6 °F 66% 30.14 in 10.0 mi SW 6.9 mph - N/A   Mostly Cloudy
11:35 AM 86.0 °F 91.8 °F 71.6 °F 62% 30.13 in 10.0 mi WSW 11.5 mph 18.4 mph N/A   Partly Cloudy
11:55 AM 84.2 °F 89.6 °F 71.6 °F 66% 30.12 in 10.0 mi WSW 10.4 mph - N/A   Mostly Cloudy
12:15 PM 86.0 °F 91.8 °F 71.6 °F 62% 30.12 in 10.0 mi WSW 10.4 mph 17.3 mph N/A   Scattered Clouds
12:35 PM 86.0 °F 91.8 °F 71.6 °F 62% 30.11 in 10.0 mi West 8.1 mph - N/A   Clear
12:55 PM 86.0 °F 91.8 °F 71.6 °F 62% 30.09 in 10.0 mi SSW 6.9 mph - N/A   Partly Cloudy
1:15 PM 87.8 °F 93.8 °F 71.6 °F 58% 30.09 in 10.0 mi South 8.1 mph - N/A   Partly Cloudy
1:35 PM 87.8 °F 93.8 °F 71.6 °F 58% 30.08 in 10.0 mi SW 9.2 mph - N/A   Partly Cloudy
1:55 PM 86.0 °F 89.4 °F 68.0 °F 55% 30.08 in 10.0 mi West 5.8 mph - N/A   Mostly Cloudy
2:15 PM 78.8 °F - 71.6 °F 78% 30.09 in 10.0 mi ENE 11.5 mph 19.6 mph N/A   Mostly Cloudy
2:35 PM 77.0 °F - 71.6 °F 83% 30.09 in 10.0 mi East 12.7 mph - N/A   Mostly Cloudy
2:55 PM 77.0 °F - 69.8 °F 78% 30.09 in 10.0 mi SE 8.1 mph - N/A   Scattered Clouds
3:15 PM 80.6 °F 83.2 °F 68.0 °F 65% 30.08 in 10.0 mi SE 15.0 mph 23.0 mph N/A   Scattered Clouds
3:35 PM 80.6 °F 82.7 °F 66.2 °F 61% 30.08 in 10.0 mi South 9.2 mph - N/A   Mostly Cloudy
3:55 PM 80.6 °F 83.2 °F 68.0 °F 65% 30.07 in 10.0 mi SSE 6.9 mph - N/A   Scattered Clouds
4:15 PM 82.4 °F 85.4 °F 68.0 °F 62% 30.07 in 10.0 mi SE 10.4 mph - N/A   Clear
4:35 PM 82.4 °F 86.3 °F 69.8 °F 66% 30.06 in 10.0 mi SE 8.1 mph 16.1 mph N/A   Clear
4:55 PM 82.4 °F 86.3 °F 69.8 °F 66% 30.06 in 10.0 mi SE 6.9 mph - N/A   Clear
5:15 PM 82.4 °F 87.2 °F 71.6 °F 70% 30.06 in 10.0 mi ESE 8.1 mph - N/A   Partly Cloudy
5:35 PM 80.6 °F 84.6 °F 71.6 °F 74% 30.05 in 10.0 mi ESE 9.2 mph - N/A   Partly Cloudy
5:55 PM 80.6 °F 84.6 °F 71.6 °F 74% 30.06 in 10.0 mi ESE 8.1 mph - N/A   Clear
6:15 PM 80.6 °F 83.9 °F 69.8 °F 70% 30.06 in 10.0 mi ESE 4.6 mph - N/A   Clear
6:35 PM 80.6 °F 84.6 °F 71.6 °F 74% 30.05 in 10.0 mi ESE 5.8 mph - N/A   Clear
6:55 PM 80.6 °F 84.6 °F 71.6 °F 74% 30.06 in 10.0 mi SE 3.5 mph - N/A   Clear
7:15 PM 80.6 °F 85.4 °F 73.4 °F 79% 30.05 in 10.0 mi SE 4.6 mph - N/A   Clear
7:35 PM 80.6 °F 85.4 °F 73.4 °F 79% 30.05 in 10.0 mi Calm Calm - N/A   Clear
7:55 PM 80.6 °F 85.4 °F 73.4 °F 79% 30.05 in 10.0 mi SE 4.6 mph - N/A   Clear
8:15 PM 77.0 °F - 73.4 °F 89% 30.05 in 10.0 mi South 3.5 mph - N/A   Clear
8:35 PM 77.0 °F - 73.4 °F 89% 30.05 in 10.0 mi SSE 4.6 mph - N/A   Clear
8:55 PM 77.0 °F - 73.4 °F 89% 30.06 in 10.0 mi SSE 3.5 mph - N/A   Unknown
9:15 PM 77.0 °F - 73.4 °F 89% 30.06 in 10.0 mi SE 3.5 mph - N/A   Clear
9:35 PM 77.0 °F - 75.2 °F 94% 30.06 in 10.0 mi Calm Calm - N/A   Unknown
9:55 PM 77.0 °F - 75.2 °F 94% 30.05 in 10.0 mi Calm Calm - N/A   Clear
10:15 PM 77.0 °F - 75.2 °F 94% 30.05 in 10.0 mi SSE 3.5 mph - N/A   Clear
10:35 PM 77.0 °F - 75.2 °F 94% 30.05 in 10.0 mi SSE 3.5 mph - N/A   Unknown
10:55 PM 77.0 °F - 75.2 °F 94% 30.06 in 10.0 mi SSE 3.5 mph - N/A   Unknown
11:15 PM 77.0 °F - 75.2 °F 94% 30.06 in 10.0 mi South 6.9 mph - N/A   Partly Cloudy
11:35 PM 75.2 °F - 75.2 °F 100% 30.06 in 10.0 mi South 8.1 mph - N/A   Unknown
11:55 PM 77.0 °F - 73.4 °F 89% 30.06 in 10.0 mi South 6.9 mph - N/A   Unknown